IRS-P5 (CARTOSAT-1)

Last updated on Fri Jul 10 2026 00:02:49 GMT+0000 (Coordinated Universal Time)

1 28649U 05017A 26189.95526612 .00001006 00000+0 10678-3 0 9995 2 28649 97.5304 212.0322 0001703 56.4450 303.6931 14.91106873147069
UTC large
Height (km)
Speed (km/s)
/
Latitude / Longitude
Inclination (degrees)
Orbital Period (minutes)
Azimuth
Elevation
Range (km)
Doppler Factor

Next 0 passes for location: London (51.5072 / 0.1276)

No passes found over London.
IRS-P5 (CARTOSAT-1)